Tillbaka till svenska Fidonet
English   Information   Debug  
FILM   0/18
FNEWS_PUBLISH   4983
FN_SYSOP   42232
FN_SYSOP_OLD1   71952
FTP_FIDO   0/2
FTSC_PUBLIC   0/13976
FUNNY   0/4886
GENEALOGY.EUR   0/71
GET_INFO   105
GOLDED   312/408
HAM   2402/16715
HOLYSMOKE   0/6791
HOT_SITES   0/1
HTMLEDIT   0/71
HUB203   466
HUB_100   264
HUB_400   39
HUMOR   0/29
IC   0/2851
INTERNET   0/424
INTERUSER   0/3
IP_CONNECT   719
JAMNNTPD   0/233
JAMTLAND   0/47
KATTY_KORNER   0/41
LAN   0/16
LINUX-USER   0/19
LINUXHELP   0/1155
LINUX   0/22386
LINUX_BBS   0/957
mail   18.68
mail_fore_ok   249
MENSA   0/341
MODERATOR   0/102
MONTE   0/992
MOSCOW_OKLAHOMA   0/1245
MUFFIN   0/783
MUSIC   0/321
N203_STAT   938
N203_SYSCHAT   313
NET203   321
NET204   69
NET_DEV   0/10
NORD.ADMIN   0/101
NORD.CHAT   0/2572
NORD.FIDONET   189
NORD.HARDWARE   0/28
NORD.KULTUR   0/114
NORD.PROG   0/32
NORD.SOFTWARE   0/88
NORD.TEKNIK   0/58
NORD   0/453
OCCULT_CHAT   0/93
OS2BBS   0/787
OS2DOSBBS   0/580
OS2HW   0/42
OS2INET   0/37
OS2LAN   0/134
OS2PROG   0/36
OS2REXX   0/113
OS2USER-L   207
OS2   0/4831
OSDEBATE   0/18996
PASCAL   0/490
PERL   0/457
PHP   0/45
POINTS   0/405
POLITICS   0/29554
POL_INC   635/14731
PSION   103
R20_ADMIN   1133
R20_AMATORRADIO   0/2
R20_BEST_OF_FIDONET   16
R20_CHAT   0/897
R20_DEPP   0/3
R20_DEV   400
R20_ECHO2   1889
R20_ECHOPRES   0/35
R20_ESTAT   0/719
R20_FIDONETPROG...
...RAM.MYPOINT
  0/2
R20_FIDONETPROGRAM   0/22
R20_FIDONET   0/248
R20_FILEFIND   0/24
R20_FILEFOUND   0/22
R20_HIFI   0/3
R20_INFO2   3782
R20_INTERNET   0/12940
R20_INTRESSE   0/60
R20_INTR_KOM   0/99
R20_KANDIDAT.CHAT   42
R20_KANDIDAT   28
R20_KOM_DEV   112
R20_KONTROLL   0/13360
R20_KORSET   0/18
R20_LOKALTRAFIK   0/24
R20_MODERATOR   0/1852
R20_NC   76
R20_NET200   245
R20_NETWORK.OTH...
...ERNETS
  0/13
R20_OPERATIVSYS...
...TEM.LINUX
  0/44
R20_PROGRAMVAROR   0/1
R20_REC2NEC   534
R20_SFOSM   0/341
R20_SF   0/108
R20_SPRAK.ENGLISH   0/1
R20_SQUISH   107
R20_TEST   2
R20_WORST_OF_FIDONET   20
RAR   0/9
RA_MULTI   106
RA_UTIL   0/162
REGCON.EUR   0/2069
REGCON   0/13
SCIENCE   0/1206
SF   0/239
SHAREWARE_SUPPORT   0/5146
SHAREWRE   0/14
SIMPSONS   0/169
STATS_OLD1   2166/2539.065
STATS_OLD2   0/2530
STATS_OLD3   0/2395.095
STATS_OLD4   0/1692.25
SURVIVOR   0/495
SYSOPS_CORNER   0/3
SYSOP   59/84
TAGLINES   0/112
TEAMOS2   0/4530
TECH   2241/2617
TEST.444   0/105
TRAPDOOR   0/19
TREK   0/755
TUB   0/290
UFO   0/40
UNIX   0/1316
USA_EURLINK   0/102
USR_MODEMS   0/1
VATICAN   0/2740
VIETNAM_VETS   0/14
VIRUS   0/378
VIRUS_INFO   0/201
VISUAL_BASIC   0/473
WHITEHOUSE   0/5187
WIN2000   0/101
WIN32   0/30
WIN95   0/4291
WIN95_OLD1   0/70272
WINDOWS   0/1517
WWB_SYSOP   0/419
WWB_TECH   665/810
ZCC-PUBLIC   0/1
ZEC   4

 
4DOS   0/134
ABORTION   0/7
ALASKA_CHAT   0/506
ALLFIX_FILE   0/1313
ALLFIX_FILE_OLD1   0/7997
ALT_DOS   0/152
AMATEUR_RADIO   0/1039
AMIGASALE   0/14
AMIGA   0/331
AMIGA_INT   0/1
AMIGA_PROG   0/20
AMIGA_SYSOP   0/26
ANIME   0/15
ARGUS   0/924
ASCII_ART   0/340
ASIAN_LINK   0/651
ASTRONOMY   0/417
AUDIO   0/92
AUTOMOBILE_RACING   0/105
BABYLON5   0/17862
BAG   135
BATPOWER   0/361
BBBS.ENGLISH   0/382
BBSLAW   0/109
BBS_ADS   0/5290
BBS_INTERNET   0/507
BIBLE   1114/3563
BINKD   0/1119
BINKLEY   0/215
BLUEWAVE   0/2173
CABLE_MODEMS   0/25
CBM   0/46
CDRECORD   0/66
CDROM   0/20
CLASSIC_COMPUTER   0/378
COMICS   0/15
CONSPRCY   0/899
COOKING   42010
COOKING_OLD1   0/24719
COOKING_OLD2   18881/40862
COOKING_OLD3   0/37489
COOKING_OLD4   16895/35496
COOKING_OLD5   9370
C_ECHO   0/189
C_PLUSPLUS   0/31
DIRTY_DOZEN   0/201
DOORGAMES   0/2333
DOS_INTERNET   0/196
duplikat   6102
ECHOLIST   14776/18295
EC_SUPPORT   0/318
ELECTRONICS   0/359
ELEKTRONIK.GER   1534
ENET.LINGUISTIC   0/13
ENET.POLITICS   0/4
ENET.SOFT   0/11701
ENET.SYSOP   34335
ENET.TALKS   0/32
ENGLISH_TUTOR   0/2000
EVOLUTION   0/1335
FDECHO   0/217
FDN_ANNOUNCE   3046/7068
FIDONEWS   25122
FIDONEWS_OLD1   0/49742
FIDONEWS_OLD2   0/35949
FIDONEWS_OLD3   0/30874
FIDONEWS_OLD4   0/37224
FIDO_SYSOP   12973
FIDO_UTIL   0/180
FILEFIND   0/209
FILEGATE   0/212
Möte HAM, 16715 texter
 lista första sista föregående nästa
Text 4971, 965 rader
Skriven 2011-12-21 22:01:47 av Amsat List (1:323/120.0)
Ärende: [keps] orb11355.amsa
============================
[keps] orb11355.amsa

Sender: keps-bounces@amsat.org
Return-Path: <keps-bounces@amsat.org>
X-Rcpt: craig.healy@chowda.com
X-UIDL: 1324519904.268

SB KEPS @ AMSAT  $ORB11355.O
Orbital Elements  11355.OSCAR

HR AMSAT ORBITAL ELEMENTS FOR OSCAR SATELLITES
FROM WA5QGD FORT WORTH,TX December 21, 2011
Send Subscribe/unsubscribe to KEPS at http://www.amsat.org/mailman/listinfo/kep
BID: ORB11355.O
TO ALL RADIO AMATEURS BT

Satellite: AO-07
Catalog number: 07530
Epoch time:      11354.90186500
Element set:    0260
Inclination:      101.3966 deg
RA of node:       354.0932 deg
Eccentricity:    0.0011901
Arg of perigee:   274.7855 deg
Mean anomaly:     085.1857 deg
Mean motion:   12.53586444 rev/day
Decay rate:       -2.7e-07 rev/day^2
Epoch rev:           69758
Checksum:              307

Satellite: FO-29
Catalog number: 24278
Epoch time:      11355.89180287
Element set:     732
Inclination:      098.5737 deg
RA of node:       114.9943 deg
Eccentricity:    0.0351128
Arg of perigee:   130.9122 deg
Mean anomaly:     232.2989 deg
Mean motion:   13.52974535 rev/day
Decay rate:        3.7e-07 rev/day^2
Epoch rev:           75784
Checksum:              343

Satellite: SO-33
Catalog number: 25509
Epoch time:      11355.80884186
Element set:     126
Inclination:      031.4322 deg
RA of node:       263.0352 deg
Eccentricity:    0.0352724
Arg of perigee:   082.6894 deg
Mean anomaly:     281.3679 deg
Mean motion:   14.28624490 rev/day
Decay rate:       8.18e-06 rev/day^2
Epoch rev:           68712
Checksum:              317

Satellite: RS-22
Catalog number: 27939
Epoch time:      11355.60387475
Element set:     919
Inclination:      097.8237 deg
RA of node:       200.4357 deg
Eccentricity:    0.0014535
Arg of perigee:   110.4121 deg
Mean anomaly:     249.8645 deg
Mean motion:   14.63834626 rev/day
Decay rate:       6.63e-06 rev/day^2
Epoch rev:           43975
Checksum:              327

Satellite: VO-52
Catalog number: 28650
Epoch time:      11355.62906163
Element set:     979
Inclination:      097.6204 deg
RA of node:       030.1671 deg
Eccentricity:    0.0025461
Arg of perigee:   267.6868 deg
Mean anomaly:     092.1409 deg
Mean motion:   14.82550339 rev/day
Decay rate:      1.455e-05 rev/day^2
Epoch rev:           35851
Checksum:              319

Satellite: SO-67
Catalog number: 35870
Epoch time:      11355.74528351
Element set:     515
Inclination:      097.2579 deg
RA of node:       032.7214 deg
Eccentricity:    0.0003785
Arg of perigee:   081.4998 deg
Mean anomaly:     028.2640 deg
Mean motion:   15.22332443 rev/day
Decay rate:      4.520e-05 rev/day^2
Epoch rev:           12545
Checksum:              305

Satellite: HO-68
Catalog number: 36122
Epoch time:      11355.67384874
Element set:      32
Inclination:      100.3906 deg
RA of node:       053.4318 deg
Eccentricity:    0.0007723
Arg of perigee:   155.3903 deg
Mean anomaly:     204.7591 deg
Mean motion:   13.16291698 rev/day
Decay rate:       -4.4e-07 rev/day^2
Epoch rev:            9690
Checksum:              301

/EX
SB KEPS @ AMSAT  $ORB11355.D
Orbital Elements  11355.MICROS

HR AMSAT ORBITAL ELEMENTS FOR THE MICROSATS
FROM WA5QGD FORT WORTH,TX December 21, 2011
Send Subscribe/unsubscribe to KEPS at http://www.amsat.org/mailman/listinfo/kep
BID: ORB11355.D
TO ALL RADIO AMATEURS BT

Satellite: UO-11
Catalog number: 14781
Epoch time:      11354.93282826
Element set:    0752
Inclination:      097.9810 deg
RA of node:       050.8086 deg
Eccentricity:    0.0007907
Arg of perigee:   253.9325 deg
Mean anomaly:     106.1020 deg
Mean motion:   14.80240261 rev/day
Decay rate:       6.79e-06 rev/day^2
Epoch rev:           49341
Checksum:              295

Satellite: AO-16
Catalog number: 20439
Epoch time:      11354.86792138
Element set:     353
Inclination:      098.4083 deg
RA of node:       298.4709 deg
Eccentricity:    0.0010850
Arg of perigee:   335.6308 deg
Mean anomaly:     024.4357 deg
Mean motion:   14.31997664 rev/day
Decay rate:       2.16e-06 rev/day^2
Epoch rev:           14433
Checksum:              316

Satellite: LO-19
Catalog number: 20442
Epoch time:      11354.91834863
Element set:    0291
Inclination:      098.3741 deg
RA of node:       302.1714 deg
Eccentricity:    0.0011398
Arg of perigee:   326.8594 deg
Mean anomaly:     033.1871 deg
Mean motion:   14.32219467 rev/day
Decay rate:       2.56e-06 rev/day^2
Epoch rev:           14452
Checksum:              300

Satellite: AO-27
Catalog number: 22825
Epoch time:      11355.82244743
Element set:     989
Inclination:      098.5530 deg
RA of node:       296.6094 deg
Eccentricity:    0.0009324
Arg of perigee:   083.6194 deg
Mean anomaly:     276.6050 deg
Mean motion:   14.29412756 rev/day
Decay rate:        7.4e-07 rev/day^2
Epoch rev:           95099
Checksum:              339

Satellite: IO-26
Catalog number: 22826
Epoch time:      11354.94736542
Element set:    0748
Inclination:      098.5494 deg
RA of node:       296.1697 deg
Eccentricity:    0.0009858
Arg of perigee:   080.8196 deg
Mean anomaly:     279.4098 deg
Mean motion:   14.29681665 rev/day
Decay rate:       1.95e-06 rev/day^2
Epoch rev:           95099
Checksum:              386

Satellite: GO-32
Catalog number: 25397
Epoch time:      11354.63742442
Element set:    0660
Inclination:      098.3441 deg
RA of node:       337.3883 deg
Eccentricity:    0.0002172
Arg of perigee:   086.5209 deg
Mean anomaly:     273.6212 deg
Mean motion:   14.23247495 rev/day
Decay rate:       1.36e-06 rev/day^2
Epoch rev:           69848
Checksum:              314

